User: anonymous   Login
Location: The D'Auria's Ocala Star Observatory
(29.0276°N, 82.1742°W)
Time: 16:17:44
(UTC-04:00)
Language:

Abrixas rocket - Orbit

View from above orbital plane
View from above orbital plane
View from above satellite
View from above satellite

Ground track
Ground track

The orbit data is extracted from the following two-line orbital elements,

1 25723U 99022C   15184.44222420  .00007013  00000-0  17465-3 0  9997
2 25723 048.4215 344.6974 0015096 219.2391 168.3710 15.41163565895746
Epoch (UTC): 03 July 2015 10:36:48
Eccentricity: 0.0015096
inclination: 48.4215°
perigee height: 432 km
apogee height: 453 km
right ascension of ascending node: 344.6974°
argument of perigee: 219.2391°
revolutions per day: 15.41163565
mean anomaly at epoch: 168.3710°
orbit number at epoch: 89574

The dashed part of the orbit path shows where the satellite is in the earth's shadow,  

DLR